RH
14 14 15 13 16 17 17 19 28 37 35 37 49 59 59 55 47 42 41 38 33 33 29 27 26 26 32 43 51 55 63 70 66 65 75 72 74 78 79 89 79 74 68 73
13 12 11 10 11 14 17 16 37 42 34 78 54 60 51 56 62 62 60 40 40 36 32 30 28 26 30 45 53 61 67 72 70 65 71 71 84 81 72 72 69 65 70 64
13 9 8 9 10 11 14 16 29 35 36 58 75 84 58 59 57 53 46 44 38 40 38 32 33 31 31 46 53 61 70 72 72 70 72 97 98 96 89 70 66 67 67 64
11 8 8 9 9 9 13 14 23 42 27 36 30 70 63 60 66 57 52 53 51 40 45 34 35 38 31 43 47 61 68 72 68 72 74 78 83 90 79 70 77 70 70 65
12 10 9 10 9 9 13 14 22 22 18 17 19 45 85 78 52 56 54 51 51 48 37 33 36 42 35 39 42 56 67 75 71 75 80 73 81 93 94 94 79 81 80 68
10 7 8 10 9 12 12 12 16 18 15 22 27 26 74 92 75 48 44 45 43 42 37 39 40 48 50 35 38 54 70 76 75 73 78 80 84 92 92 91 86 79 71 67
12 9 8 9 12 12 12 15 25 25 22 20 19 25 69 80 85 81 52 45 42 43 42 37 45 44 46 40 42 54 69 76 73 72 72 76 79 80 87 83 78 84 86 66
15 19 10 10 12 15 14 16 21 32 23 17 14 40 54 56 69 53 39 42 72 72 44 38 42 42 45 48 44 51 68 75 73 70 75 77 77 83 66 71 80 72 86 84
16 16 9 12 13 18 15 19 12 15 13 15 28 36 40 45 52 54 54 58 61 71 49 41 38 43 46 44 44 49 67 72 71 67 73 77 77 77 66 70 73 65 79 88
18 24 13 13 13 16 17 12 18 16 27 24 34 42 46 48 62 66 68 71 73 70 77 75 77 53 51 53 75 48 59 67 68 66 68 68 71 74 74 77 74 69 72 76
14 19 15 12 16 18 17 18 17 13 14 20 37 42 35 50 61 68 69 68 66 75 83 89 97 97 81 88 92 94 76 62 62 63 66 67 67 68 71 70 68 68 67 84
15 16 19 13 9 10 12 15 15 20 26 29 64 77 52 49 56 63 69 67 64 72 78 84 77 83 91 95 96 96 95 89 61 59 67 66 67 67 67 71 69 72 75 71
20 16 21 16 12 11 14 13 12 12 14 38 38 48 54 51 60 62 64 65 66 65 76 80 80 79 86 93 94 98 98 96 94 80 56 59 61 65 65 72 69 72 74 74
30 16 25 32 20 13 16 13 13 14 18 20 46 47 62 61 62 63 60 60 60 62 65 70 76 84 83 90 93 92 90 93 96 95 87 88 63 60 60 69 74 69 74 74
15 22 20 22 14 12 12 12 12 16 17 48 52 46 57 58 58 61 59 56 56 57 56 58 59 64 68 73 81 88 90 92 91 86 92 96 95 81 63 71 77 72 74 71
14 24 21 21 14 12 14 12 12 12 13 24 52 64 57 49 49 52 53 54 54 52 49 49 50 51 55 61 68 71 75 87 91 88 89 91 97 93 88 89 83 77 76 76
21 22 24 27 17 15 18 13 13 12 13 32 50 67 48 45 47 47 45 46 48 47 44 44 45 45 46 47 55 67 71 66 72 80 81 87 87 88 88 86 88 88 83 84
27 31 27 27 22 30 16 12 10 12 12 24 36 41 40 38 39 36 36 40 42 41 41 40 36 41 45 39 43 51 53 68 74 77 76 79 82 82 84 88 89 92 90 92
17 26 27 29 28 22 18 18 12 13 16 23 37 41 38 37 37 40 34 35 38 37 37 36 33 34 47 42 46 53 51 56 60 63 70 77 83 82 82 84 91 90 94 95
15 23 29 28 33 33 29 16 14 10 20 18 27 33 33 35 44 43 35 31 31 31 34 36 34 32 37 42 40 45 46 50 58 61 63 65 68 73 74 82 85 86 87 87
29 29 30 28 31 25 25 21 16 23 31 21 23 26 27 36 42 41 35 36 33 33 34 35 37 39 43 42 42 52 52 53 55 58 60 64 67 71 71 76 80 83 83 83
34 37 34 30 34 38 25 22 26 44 33 25 27 27 38 38 38 36 35 36 34 34 34 34 38 42 43 45 49 56 64 62 63 64 65 68 70 61 57 75 78 76 79 88
42 38 45 43 50 40 32 38 34 31 36 35 35 30 31 32 33 33 36 36 37 39 42 37 41 46 48 58 61 64 71 68 66 66 68 68 68 67 69 73 72 66 67 76
31 28 41 43 43 39 33 32 32 30 32 30 28 30 29 30 32 35 36 37 41 42 44 42 46 51 57 58 59 63 65 66 70 70 69 65 64 63 63 54 49 52 52 51
44 36 41 42 35 35 35 30 28 27 28 26 26 27 28 31 33 35 40 44 42 45 45 48 52 53 55 57 61 58 64 69 65 69 65 61 51 55 56 58 52 50 55 53
34 38 59 66 39 41 37 33 29 30 29 29 29 31 32 32 38 38 42 44 48 48 49 52 54 55 57 57 60 67 63 69 67 65 59 57 56 52 50 50 49 55 63 71
Wind_Speed
14 13 17 21 20 20 19 19 16 3 13 14 18 22 18 19 15 15 12 10 14 12 15 15 15 15 16 14 12 8 11 9 7 4 4 3 4 2 0 4 9 5 2 13
12 18 18 19 19 21 23 16 19 14 9 12 21 17 21 21 17 14 13 15 11 12 14 16 16 16 17 15 12 9 11 9 6 6 5 3 3 1 3 5 5 4 4 3
18 15 21 19 18 22 22 18 16 7 8 12 13 15 21 19 18 22 17 12 16 13 11 17 14 15 16 16 14 11 11 10 8 6 7 6 5 5 1 6 5 5 4 4
20 18 19 17 20 17 19 12 13 12 17 14 25 11 19 22 16 18 17 13 13 17 8 18 15 9 15 17 15 12 10 12 9 6 1 9 10 4 2 4 3 5 5 4
19 16 17 17 17 18 16 17 24 25 15 16 17 9 3 13 17 17 19 17 18 15 16 20 17 14 13 17 15 14 11 12 9 7 4 3 5 2 2 4 6 4 6 4
16 15 13 11 15 13 22 14 13 16 9 13 13 11 14 6 10 15 18 15 18 18 16 18 17 11 9 16 16 15 13 11 9 9 6 6 6 2 3 5 4 7 5 5
18 20 11 12 17 19 20 13 10 10 10 12 20 16 11 16 6 29 20 21 17 15 13 17 20 19 16 17 19 17 15 13 11 11 10 9 7 6 5 6 7 5 0 5
15 12 17 15 20 16 16 19 11 16 13 12 16 11 11 14 25 7 13 9 9 18 17 19 17 20 18 13 19 20 18 14 13 11 10 8 7 4 8 9 1 5 4 2
18 12 17 13 15 7 16 17 17 16 18 15 10 19 21 18 13 9 9 13 10 26 30 21 19 20 18 16 17 19 19 17 15 14 10 10 9 9 6 6 5 2 7 6
13 9 16 11 4 7 16 11 17 15 15 14 15 18 18 18 12 7 8 12 12 19 20 9 9 7 10 9 7 8 19 18 16 14 12 11 10 10 7 5 6 3 5 1
17 13 10 12 14 14 10 12 14 17 14 10 7 7 19 19 13 10 9 10 9 15 15 13 13 9 16 15 14 14 14 18 14 13 14 13 12 12 9 6 4 4 2 11
13 9 11 14 12 18 21 13 16 13 17 7 7 4 6 16 14 12 10 12 12 15 13 13 14 12 15 15 12 3 9 15 5 15 12 13 12 11 12 9 8 6 6 4
11 9 5 14 5 6 10 15 15 14 17 6 10 8 14 13 16 12 12 14 11 14 15 13 14 14 15 13 13 10 9 12 11 6 13 13 13 12 11 12 10 8 7 7
6 9 10 6 5 15 17 16 14 12 10 6 17 18 19 16 18 12 14 15 14 14 13 13 13 13 14 11 10 9 8 7 8 14 10 10 7 13 10 8 10 9 8 8
6 8 5 12 9 12 15 18 12 10 14 12 15 19 22 17 17 13 13 15 16 16 16 14 14 12 11 11 9 8 8 6 10 10 12 15 9 13 6 2 5 6 6 8
6 8 6 10 1 10 8 6 8 7 13 9 22 9 16 18 19 14 13 14 14 15 15 15 14 13 12 11 10 9 9 9 6 11 12 9 13 13 14 12 8 4 5 5
6 6 10 10 7 4 7 5 6 9 9 18 18 10 13 19 15 14 15 13 13 14 13 13 13 13 12 12 10 9 9 10 10 10 9 9 9 8 10 10 8 8 6 6
5 8 8 9 11 10 4 7 5 11 3 10 21 22 16 15 15 14 13 11 10 11 11 11 10 10 11 11 12 10 7 6 8 9 10 9 7 8 8 8 8 9 10 8
9 6 8 10 11 7 5 2 6 5 10 11 15 8 15 17 17 9 8 10 8 8 9 9 8 8 8 9 9 8 9 9 11 11 9 6 5 7 8 8 8 7 8 8
8 6 10 10 11 11 9 12 8 3 10 12 13 15 14 16 10 10 9 8 8 7 7 7 6 7 9 8 9 8 8 8 9 9 9 9 7 9 8 6 8 8 7 7
6 5 10 10 8 3 11 6 2 8 2 16 13 12 13 8 10 14 11 7 4 4 6 5 6 6 7 8 8 7 8 8 9 8 9 8 8 8 6 5 5 6 7 7
6 5 6 8 9 8 11 6 3 7 8 8 7 11 17 13 11 9 7 6 2 3 4 5 5 7 7 8 8 8 7 8 8 8 9 9 9 8 7 6 6 9 7 7
4 7 5 9 4 7 8 13 11 11 10 8 9 7 7 8 7 6 6 5 6 7 7 7 8 7 8 11 11 11 11 11 10 8 9 9 10 9 8 7 8 7 8 6
5 4 4 3 6 5 7 7 9 7 9 7 6 8 6 7 8 8 7 5 7 6 4 5 4 6 7 8 10 11 11 12 13 12 10 8 9 9 9 8 8 6 6 8
7 4 4 7 4 4 5 4 5 7 9 9 8 9 7 9 7 7 7 6 5 4 5 5 6 5 5 7 9 11 12 14 13 13 13 11 8 9 8 8 6 6 7 6
6 8 4 5 8 6 5 10 10 9 8 10 8 9 8 6 8 6 7 5 6 2 4 5 6 6 6 6 8 8 9 8 10 13 11 11 11 10 10 9 10 10 12 13
Wind_Direction
204 218 214 215 213 236 218 218 178 17 131 158 143 139 156 155 164 166 177 170 160 165 166 165 164 160 148 148 155 177 136 146 141 187 151 165 176 127 98 121 186 145 175 132
180 222 218 231 224 235 256 260 124 154 92 43 136 159 163 159 171 184 204 173 175 172 179 165 170 169 159 150 161 164 143 152 190 194 173 152 59 113 182 173 183 144 181 133
219 213 236 211 227 224 238 243 165 165 106 239 148 196 159 180 179 176 191 189 186 196 200 166 182 168 160 154 164 167 157 163 210 216 117 83 39 306 242 149 180 165 174 182
234 236 201 224 233 222 227 236 119 129 183 174 189 140 180 167 182 168 181 186 183 204 239 165 175 171 177 157 162 165 170 168 212 232 75 160 170 196 202 180 152 157 182 161
220 230 203 223 223 214 235 168 180 210 214 215 196 111 128 27 173 161 174 182 195 215 215 177 170 177 190 157 164 163 176 170 196 210 161 207 106 210 63 301 146 207 147 171
240 221 219 217 237 224 240 270 159 245 220 232 204 279 154 170 260 180 171 194 194 198 200 175 175 177 226 162 166 161 173 182 195 195 171 224 141 197 211 181 181 192 173 168
226 225 206 217 218 232 228 239 198 209 220 240 190 204 103 107 263 256 179 182 188 204 207 190 176 183 203 175 167 158 172 181 195 187 197 200 207 166 118 179 219 143 132 183
212 197 205 202 219 213 216 233 212 204 221 230 249 141 169 163 151 289 106 149 62 306 229 199 196 186 192 196 169 163 168 178 187 193 201 200 218 207 185 214 180 152 145 282
199 216 183 209 231 328 199 241 254 222 227 231 110 108 151 138 100 88 89 51 160 215 226 203 202 180 189 200 173 169 168 175 184 196 196 198 204 232 219 193 186 176 128 126
289 302 161 183 312 245 274 232 240 247 265 254 134 158 150 142 120 101 70 50 15 30 31 39 11 268 178 220 49 173 168 174 182 194 198 200 202 213 231 252 171 191 108 169
284 147 183 198 210 227 218 247 252 264 256 235 171 58 130 118 126 124 94 72 46 53 38 53 69 58 58 37 32 328 310 168 184 196 192 198 200 202 215 223 195 188 156 151
285 305 162 192 215 223 248 240 235 240 249 77 95 333 6 114 115 105 96 78 66 76 61 59 61 67 73 54 54 280 306 30 262 194 198 195 188 201 193 207 203 190 178 217
334 245 213 158 180 233 236 240 266 270 267 165 152 145 156 119 107 93 88 83 65 71 71 56 62 59 64 74 58 38 23 27 311 305 195 190 192 197 201 191 198 194 189 189
297 293 17 345 353 205 215 237 238 266 281 320 112 147 120 122 111 107 98 92 86 79 79 79 60 56 57 52 67 51 51 21 316 3 332 25 203 191 201 190 190 196 190 192
308 297 331 177 311 328 204 222 226 246 266 76 137 153 138 130 115 118 101 93 90 87 83 77 83 78 69 74 76 81 60 41 7 7 18 26 13 331 166 173 193 195 185 201
259 290 321 284 157 325 349 78 26 246 267 131 70 102 110 128 133 124 113 98 92 85 77 74 67 69 66 69 67 60 71 67 39 49 28 5 24 355 22 16 345 258 227 253
280 271 273 255 240 229 271 251 182 264 290 129 139 170 130 145 125 122 117 106 94 83 75 71 61 53 49 43 46 73 64 58 54 64 63 38 29 2 9 10 353 354 287 273
217 264 265 262 249 223 254 8 266 215 182 57 134 150 151 118 101 97 101 99 90 86 77 67 62 56 50 44 33 9 72 74 59 48 50 63 40 26 7 353 2 349 349 332
269 262 248 254 235 235 182 227 236 202 142 114 131 131 110 117 107 107 90 98 89 85 80 65 52 64 61 35 45 7 24 39 37 29 29 33 38 21 10 7 349 343 338 330
276 204 274 262 250 257 19 85 14 274 174 142 135 127 140 141 179 150 144 123 98 69 68 50 47 41 53 22 28 8 26 26 29 15 6 5 13 4 346 351 346 334 316 302
235 253 234 240 252 192 112 84 346 202 65 134 149 159 158 121 61 113 120 108 91 63 58 27 29 35 39 23 10 6 6 17 7 357 346 348 354 336 335 355 318 302 311 307
205 212 243 251 254 234 123 151 243 74 82 102 101 121 97 108 118 120 108 106 89 50 25 31 21 20 9 15 6 0 358 360 346 338 331 334 328 328 327 314 311 306 285 284
296 26 341 9 60 77 42 91 116 113 106 96 108 107 115 139 141 128 123 108 89 61 43 25 17 -0 13 21 5 352 353 342 331 322 319 320 314 304 294 307 299 290 292 246
230 303 294 355 122 128 93 93 98 112 139 130 134 126 172 151 133 134 120 101 74 65 39 25 36 13 4 360 353 342 346 347 335 319 307 297 301 299 292 279 280 286 297 318
287 8 316 274 250 124 133 161 143 122 127 141 134 150 148 138 142 130 122 109 86 61 46 34 19 11 351 6 350 345 356 351 335 331 322 313 295 289 292 280 283 298 304 273
223 252 205 257 289 266 225 175 163 158 170 150 161 143 151 166 142 144 132 122 93 48 37 22 14 10 8 352 358 2 344 345 334 330 320 331 327 319 318 311 304 288 262 263